Regional Weather Roundup
Issued by NWS

Home | Current Version | Previous Version | Text Only | Print | Product List | Glossary Off
Versions: 1 2 3 4 5 6 7 8 9 10 11 12 13 14 15 16 17 18 19 20 21 22 23 24 25 26 27 28 29 30 31 32 33 34 35 36 37 38 39 40 41 42 43 44 45 46 47 48 49 50

000
ASUS43 KIND 151759
RWRIN

WEATHER ROUNDUP FOR INDIANA
NATIONAL WEATHER SERVICE INDIANAPOLIS IN
200 PM EDT TUE APR 15 2014

NOTE: "FAIR" INDICATES FEW OR NO CLOUDS BELOW 12,000 FEET WITH NO
SIGNIFICANT WEATHER AND/OR OBSTRUCTIONS TO VISIBILITY.

* - STATION DOES NOT REPORT WEATHER SUCH AS PRECIPITATION OR FOG.

+ - STATION NOT QUALITY CONTROLLED BY THE NATIONAL WEATHER SERVICE.
    USE DATA WITH CAUTION...ESPECIALLY DEWPOINT AND RELATIVE
    HUMIDITY OBSERVATIONS.

INZ001>003-010>013-019-020-151900-
NORTHWEST INDIANA

CITY           SKY/WX    TMP DP  RH WIND       PRES   REMARKS
GARY /AIRPORT/ PTSUNNY   34  18  51 N12G23      N/A  WCI  25
LA PORTE +     PTSUNNY   31  14  48 NW9G23    30.15R WCI  23
6HR MIN TEMP:  26; 6HR MAX TEMP:  32;

MONTICELLO +   CLOUDY    34  17  50 N17G24    30.13F WCI  23
VALPARAISO     SUNNY     32  12  43 N13G22    30.14S WCI  22
6HR MIN TEMP:  28; 6HR MAX TEMP:  32; 6HR PCP: TRACE;


$$

LMZ046-743>745-151900-
SOUTHERN LAKE MICHIGAN

STATION/POSITION TIME  TEMP WIND        PRES
                       AIR  DIR/SP/G
                 (UTC) (F)  (DEG/KT/KT) (MB)
MICHIGAN CITY    1700   29  320/ 16/ 20   N/A

$$

INZ004-005-014>016-021>024-151900-
NORTH CENTRAL INDIANA

CITY           SKY/WX    TMP DP  RH WIND       PRES   REMARKS
GOSHEN         CLOUDY    32  13  45 NW22G29   30.10R WCI  19
6HR MIN TEMP:  28; 6HR MAX TEMP:  34; 6HR PCP: TRACE;

SOUTH BEND     PTSUNNY   32  13  45 NW17G25   30.13R WCI  21
6HR MIN TEMP:  28; 6HR MAX TEMP:  33; 6HR PCP: TRACE;


$$

INZ006>009-017-018-025>027-151900-
NORTHEAST INDIANA

CITY           SKY/WX    TMP DP  RH WIND       PRES   REMARKS
ANGOLA *+      PTSUNNY   30  18  59 N13       30.05S WCI  20
FORT WAYNE     PTSUNNY   32  15  49 NW16G26   30.09R WCI  21
6HR MIN TEMP:  27; 6HR MAX TEMP:  33;


$$

INZ028-029-035-036-043>045-051>053-151900-
WEST CENTRAL INDIANA

CITY           SKY/WX    TMP DP  RH WIND       PRES   REMARKS
GREENCASTLE +  PTSUNNY   37  14  38 NW10G23   30.14S
LAFAYETTE      CLOUDY    34  17  50 NW15G23   30.15S WCI  24
6HR MIN TEMP:  28; 6HR MAX TEMP:  35; 6HR PCP:  0.01;

TERRE HAUTE    CLOUDY    38  19  46 NW15G22   30.17R
6HR MIN TEMP:  31; 6HR MAX TEMP:  39;


$$

INZ030>032-037>040-046>048-054>057-064-065-151900-
CENTRAL INDIANA

CITY           SKY/WX    TMP DP  RH WIND       PRES   REMARKS
COLUMBUS       PTSUNNY   37  28  70 NW13      30.13S
INDIANAPOLIS   PTSUNNY   33  20  58 NW18      30.12S WCI  22
6HR MIN TEMP:  28; 6HR MAX TEMP:  35; 6HR PCP: TRACE;

-EAGLE CREEK   LGT RAIN  33  18  53 N16       30.12S WCI  23
6HR MIN TEMP:  30; 6HR MAX TEMP:  36; 6HR PCP: TRACE;

KOKOMO *+      CLOUDY    36  16  44 N17G25    30.11S
MT COMFORT *+  MOSUNNY   36  25  64 N17       30.12S
SHELBYVILLE    CLOUDY    38  25  59 NW20      30.11R
6HR MIN TEMP:  32; 6HR MAX TEMP:  39; 6HR PCP: TRACE;


$$

INZ033-034-041-042-049-050-058-059-151900-
EAST CENTRAL INDIANA

CITY           SKY/WX    TMP DP  RH WIND       PRES   REMARKS
MUNCIE         CLOUDY    31  22  69 NW17G26   30.10R WCI  19
6HR MIN TEMP:  28; 6HR MAX TEMP:  34; 6HR PCP: TRACE;


$$

INZ060-061-067>069-081>083-085>088-151900-
SOUTHWEST INDIANA

CITY           SKY/WX    TMP DP  RH WIND       PRES   REMARKS
EVANSVILLE     PTSUNNY   41  24  51 N15G24    30.18S
6HR MIN TEMP:  34; 6HR MAX TEMP:  42;

HUNTINGBURG *+ CLOUDY    41  23  48 N10G25    30.17S
6HR MIN TEMP:  34; 6HR MAX TEMP:  41;


$$

INZ062-063-066-070>080-084-089>092-151900-
SOUTH CENTRAL AND SOUTHEAST INDIANA

CITY           SKY/WX    TMP DP  RH WIND       PRES   REMARKS
BLOOMINGTON    PTSUNNY   39  20  46 VRB7G18   30.13S
6HR MIN TEMP:  31; 6HR MAX TEMP:  39;


$$




USA.gov is the U.S. government's official web portal to all federal, state and local government web resources and services.